CW7500 Weather Reports


Display with metric or nautical units.
time (UTC)temp
F
wind
direction
speed
MPH
gust
MPH
rain 1hr
in
rain 24hr
in
rain mn
in
humidity
%
barometer
mb
20260507020524 57 269 2.0 5.0 0.02 0.17 0.17 100 1004.7
20260507015525 57 218 1.0 3.0 0.02 0.17 0.17 100 1004.8
20260507015024 57 259 1.0 5.0 0.02 0.17 0.17 100 1004.8
20260507014025 57 200 2.0 5.0 0.02 0.17 0.17 100 1004.6
20260507013524 57 158 1.0 3.0 0.02 0.17 0.17 100 1004.6
20260507013025 57 212 2.0 5.0 0.02 0.17 0.17 100 1004.6
20260507012524 57 209 2.0 6.0 0.02 0.17 0.17 100 1004.6
20260507012024 57 189 1.0 3.0 0.04 0.17 0.17 100 1004.9
20260507011524 57 193 2.0 5.0 0.04 0.17 0.17 100 1004.9
20260507010525 57 231 1.0 6.0 0.02 0.15 0.15 100 1005.0
20260507010024 57 193 2.0 3.0 0.02 0.15 0.15 100 1005.1
20260507005524 57 9 2.0 9.0 0.02 0.15 0.15 100 1004.9
20260507005024 57 171 1.0 3.0 0.02 0.15 0.15 100 1005.0
20260507004025 57 230 1.0 8.0 0.02 0.15 0.15 100 1005.1
20260507003524 57 53 1.0 3.0 0.02 0.15 0.15 100 1005.1
20260507003024 57 251 2.0 6.0 0.02 0.15 0.15 100 1005.2
20260507002524 57 217 3.0 9.0 0.02 0.15 0.15 100 1005.0
20260507002024 57 31 2.0 5.0 0.02 0.13 0.13 100 1004.8
20260507001524 57 203 1.0 3.0 0.02 0.13 0.13 100 1004.8
20260507001024 57 223 2.0 7.0 0.02 0.13 0.13 100 1004.9
20260507000524 57 133 1.0 5.0 0.02 0.13 0.13 100 1004.7
20260507000023 57 175 2.0 6.0 0.02 0.13 0.13 100 1004.7
20260506235524 57 183 2.0 5.0 0.02 0.13 0.13 100 1004.7
20260506235024 57 188 2.0 3.0 0.02 0.13 0.13 100 1004.7
20260506234524 57 214 1.0 5.0 0.02 0.13 0.13 100 1004.7
20260506234024 57 181 2.0 8.0 0.02 0.13 0.13 100 1004.6
20260506233524 57 212 3.0 6.0 0.02 0.13 0.13 100 1004.7
20260506233024 57 207 1.0 6.0 0.02 0.13 0.13 100 1004.6
20260506232524 57 145 3.0 8.0 0.04 0.13 0.13 100 1004.6
20260506231523 57 227 2.0 6.0 0.02 0.11 0.11 100 1004.6
20260506231023 57 184 1.0 6.0 0.02 0.11 0.11 100 1004.5
20260506230524 57 196 2.0 6.0 0.02 0.11 0.11 100 1004.5
20260506225524 57 225 2.0 5.0 0.04 0.11 0.11 100 1004.6
20260506224024 57 36 2.0 3.0 0.04 0.11 0.11 100 1004.7
20260506223024 57 205 2.0 6.0 0.06 0.11 0.11 100 1004.6
20260506222524 57 217 3.0 7.0 0.04 0.10 0.10 100 1004.7
20260506222024 58 228 2.0 5.0 0.04 0.10 0.10 100 1004.7
20260506221024 58 202 2.0 8.0 0.04 0.10 0.10 100 1005.0
20260506220523 58 226 2.0 7.0 0.04 0.10 0.10 100 1005.0
20260506220027 58 185 2.0 5.0 0.02 0.08 0.08 100 1005.1
20260506215523 58 198 2.0 6.0 0.02 0.08 0.08 100 1005.0
20260506215023 58 196 2.0 5.0 0.02 0.08 0.08 100 1005.0
20260506214524 58 110 2.0 3.0 0.02 0.08 0.08 100 1005.0
20260506214024 58 192 2.0 6.0 0.02 0.08 0.08 100 1005.0
20260506213523 58 186 2.0 3.0 0.00 0.06 0.06 100 1005.2
20260506213024 58 206 2.0 3.0 0.00 0.06 0.06 100 1005.3
20260506212524 58 184 2.0 6.0 0.00 0.06 0.06 100 1005.3
20260506212024 59 148 2.0 5.0 0.00 0.06 0.06 99 1005.4
20260506211523 59 169 2.0 7.0 0.00 0.06 0.06 99 1005.4
20260506211024 59 118 2.0 6.0 0.00 0.06 0.06 98 1005.3
20260506204524 59 190 2.0 8.0 0.02 0.06 0.06 96 1005.5
20260506203523 59 89 3.0 6.0 0.04 0.06 0.06 96 1005.7
20260506203023 59 181 3.0 10.0 0.04 0.06 0.06 95 1005.7
20260506201523 59 202 2.0 7.0 0.04 0.06 0.06 96 1005.7
20260506201023 59 210 3.0 10.0 0.06 0.06 0.06 94 1005.7
20260506200523 59 180 3.0 9.0 0.06 0.06 0.06 94 1005.7
20260506195523 60 198 3.0 9.0 0.06 0.06 0.06 93 1005.7
20260506195023 60 128 2.0 6.0 0.04 0.04 0.04 95 1005.7
20260506194523 60 171 2.0 3.0 0.04 0.04 0.04 96 1005.7
20260506194024 60 102 2.0 6.0 0.02 0.02 0.02 95 1005.5
20260506193523 60 113 2.0 5.0 0.02 0.02 0.02 93 1005.7
20260506193024 60 180 1.0 3.0 0.02 0.02 0.02 93 1005.8
20260506192523 60 299 3.0 5.0 0.02 0.02 0.02 92 1005.9
20260506191023 61 173 2.0 7.0 0.00 0.00 0.00 91 1005.9
20260506190524 61 197 3.0 8.0 0.00 0.00 0.00 89 1005.8
20260506190023 62 216 3.0 8.0 0.00 0.00 0.00 86 1006.0
20260506185523 63 209 4.0 8.0 0.00 0.00 0.00 81 1005.9
20260506185024 64 212 3.0 6.0 0.00 0.00 0.00 76 1005.9
20260506184523 65 189 5.0 8.0 0.00 0.00 0.00 71 1005.9
20260506184024 65 174 3.0 9.0 0.00 0.00 0.00 69 1006.0
20260506183523 66 241 3.0 10.0 0.00 0.00 0.00 67 1006.0
20260506183023 66 203 2.0 5.0 0.00 0.00 0.00 70 1006.3
20260506182523 67 235 3.0 9.0 0.00 0.00 0.00 68 1006.3
20260506182023 67 111 2.0 10.0 0.00 0.00 0.00 64 1006.1
20260506181523 68 237 4.0 10.0 0.00 0.00 0.00 61 1006.4
20260506175524 69 131 2.0 9.0 0.00 0.00 0.00 59 1006.4
20260506175023 69 231 3.0 10.0 0.00 0.00 0.00 56 1006.2
20260506174523 69 298 6.0 13.0 0.00 0.00 0.00 56 1006.3
20260506174023 70 215 4.0 10.0 0.00 0.00 0.00 56 1006.3
20260506173523 70 210 4.0 12.0 0.00 0.00 0.00 53 1006.2
20260506172523 70 157 3.0 13.0 0.00 0.00 0.00 53 1006.4
20260506171523 71 213 5.0 13.0 0.00 0.00 0.00 53 1006.4
20260506171023 71 217 4.0 15.0 0.00 0.00 0.00 52 1006.6
20260506170522 72 208 3.0 9.0 0.00 0.00 0.00 50 1006.3
20260506170023 72 222 4.0 10.0 0.00 0.00 0.00 52 1006.3
20260506165523 72 233 5.0 10.0 0.00 0.00 0.00 51 1006.6
20260506165023 71 188 5.0 12.0 0.00 0.00 0.00 53 1006.6
20260506164523 70 241 5.0 9.0 0.00 0.00 0.00 54 1006.6
20260506164023 70 147 4.0 10.0 0.00 0.00 0.00 54 1006.7
20260506163523 70 195 3.0 9.0 0.00 0.00 0.00 53 1006.8
20260506163023 70 144 3.0 9.0 0.00 0.00 0.00 54 1006.8
20260506162523 70 215 6.0 13.0 0.00 0.00 0.00 53 1006.8
20260506162023 71 115 3.0 7.0 0.00 0.00 0.00 53 1006.9
20260506161523 72 201 2.0 3.0 0.00 0.00 0.00 55 1007.0
20260506161022 72 93 2.0 7.0 0.00 0.00 0.00 53 1007.1
20260506160523 71 227 3.0 7.0 0.00 0.00 0.00 51 1007.1
20260506160022 71 192 5.0 15.0 0.00 0.00 0.00 52 1007.1
20260506155523 71 209 3.0 7.0 0.00 0.00 0.00 53 1007.4
20260506155022 71 250 3.0 7.0 0.00 0.00 0.00 55 1007.5
20260506154522 70 218 2.0 5.0 0.00 0.00 0.00 58 1007.6
20260506153523 70 223 3.0 9.0 0.00 0.00 0.00 56 1007.6
20260506153023 71 255 3.0 7.0 0.00 0.00 0.00 57 1007.7
20260506152522 71 350 3.0 8.0 0.00 0.00 0.00 56 1007.8
20260506152022 71 185 2.0 7.0 0.00 0.00 0.00 57 1007.9
20260506151023 70 242 3.0 8.0 0.00 0.00 0.00 55 1007.7
20260506150523 70 232 4.0 9.0 0.00 0.00 0.00 54 1007.8
20260506145523 70 259 3.0 7.0 0.00 0.00 0.00 55 1008.0
20260506145023 70 62 5.0 13.0 0.00 0.00 0.00 58 1007.9
20260506143522 70 264 2.0 9.0 0.00 0.00 0.00 58 1007.8
20260506143022 70 197 4.0 9.0 0.00 0.00 0.00 57 1008.0
20260506142023 70 266 3.0 7.0 0.00 0.00 0.00 59 1007.7
20260506141523 70 94 5.0 12.0 0.00 0.00 0.00 62 1007.7
20260506140523 69 210 3.0 9.0 0.00 0.00 0.00 58 1007.9
20260506140022 70 241 3.0 7.0 0.00 0.00 0.00 57 1007.7
20260506135523 69 234 4.0 9.0 0.00 0.00 0.00 60 1007.7
20260506135023 69 211 3.0 10.0 0.00 0.00 0.00 60 1007.9
20260506134522 69 183 5.0 10.0 0.00 0.00 0.00 60 1007.7
20260506134022 69 214 2.0 8.0 0.00 0.00 0.00 63 1007.7
20260506133523 68 202 2.0 8.0 0.00 0.00 0.00 62 1008.0
20260506133023 68 219 3.0 6.0 0.00 0.00 0.00 65 1008.2
20260506132522 66 181 3.0 9.0 0.00 0.00 0.00 70 1008.6
20260506132023 65 244 3.0 10.0 0.00 0.00 0.00 68 1008.5
20260506131522 65 230 2.0 6.0 0.00 0.00 0.00 70 1008.6
20260506131022 65 231 3.0 7.0 0.00 0.00 0.00 70 1008.7
20260506130522 65 310 2.0 8.0 0.00 0.00 0.00 71 1008.6
20260506130022 65 215 4.0 9.0 0.00 0.00 0.00 70 1008.6
20260506125522 65 166 2.0 8.0 0.00 0.00 0.00 71 1008.6
20260506125022 65 88 2.0 5.0 0.00 0.00 0.00 70 1008.4
20260506124022 64 229 2.0 5.0 0.00 0.00 0.00 72 1008.7
20260506123522 63 137 2.0 6.0 0.00 0.00 0.00 75 1008.7
20260506123023 63 166 3.0 5.0 0.00 0.00 0.00 74 1008.7
20260506122522 63 188 2.0 5.0 0.00 0.00 0.00 75 1008.7
20260506122023 63 203 3.0 7.0 0.00 0.00 0.00 76 1008.7
20260506121522 62 234 3.0 8.0 0.00 0.00 0.00 77 1008.6
20260506121022 62 201 3.0 7.0 0.00 0.00 0.00 76 1008.7
20260506120522 62 264 2.0 12.0 0.00 0.00 0.00 77 1008.6
20260506115522 61 181 2.0 5.0 0.00 0.00 0.00 79 1008.7
20260506115022 60 134 3.0 6.0 0.00 0.00 0.00 81 1009.0
20260506114522 60 226 2.0 8.0 0.00 0.00 0.00 81 1009.0
20260506113522 60 207 2.0 5.0 0.00 0.00 0.00 81 1008.9
20260506112522 60 153 2.0 6.0 0.00 0.00 0.00 83 1009.1
20260506112022 60 183 2.0 6.0 0.00 0.00 0.00 82 1009.1
20260506111022 59 200 2.0 8.0 0.00 0.00 0.00 82 1009.0
20260506110523 60 183 2.0 5.0 0.00 0.00 0.00 82 1008.9
20260506110022 59 205 2.0 6.0 0.00 0.00 0.00 83 1008.8
20260506105522 59 149 3.0 8.0 0.00 0.00 0.00 83 1008.8
20260506105022 59 70 2.0 6.0 0.00 0.00 0.00 84 1008.8
20260506104522 59 202 2.0 5.0 0.00 0.00 0.00 84 1008.8
20260506104022 58 190 1.0 6.0 0.00 0.00 0.00 84 1008.9
20260506103522 58 213 2.0 6.0 0.00 0.00 0.00 84 1008.7
20260506103021 58 181 2.0 5.0 0.00 0.00 0.00 84 1009.0
20260506102522 58 153 2.0 3.0 0.00 0.00 0.00 84 1009.1
20260506102021 59 235 2.0 7.0 0.00 0.00 0.00 84 1008.9
20260506101522 58 190 2.0 5.0 0.00 0.00 0.00 84 1008.9
20260506101022 58 166 2.0 5.0 0.00 0.00 0.00 84 1008.9
20260506100522 58 237 2.0 6.0 0.00 0.00 0.00 84 1008.7
20260506100021 58 208 2.0 5.0 0.00 0.00 0.00 85 1008.6
20260506095022 58 157 2.0 7.0 0.00 0.00 0.00 85 1008.6
20260506094522 58 155 2.0 5.0 0.00 0.00 0.00 84 1008.7
20260506094022 58 227 2.0 7.0 0.00 0.00 0.00 84 1008.5
20260506093522 58 203 2.0 5.0 0.00 0.00 0.00 84 1008.6
20260506093022 58 210 2.0 5.0 0.00 0.00 0.00 83 1008.6
20260506092522 58 157 2.0 7.0 0.00 0.00 0.00 83 1008.6
20260506092021 59 188 3.0 6.0 0.00 0.00 0.00 83 1008.6
20260506091021 58 180 2.0 5.0 0.00 0.00 0.00 83 1008.7
20260506090522 59 175 3.0 6.0 0.00 0.00 0.00 83 1008.7
20260506090021 59 114 3.0 7.0 0.00 0.00 0.00 83 1008.4
20260506085522 59 209 3.0 7.0 0.00 0.00 0.00 83 1008.6
20260506085022 59 195 3.0 7.0 0.00 0.00 0.00 82 1008.6
20260506084522 59 153 2.0 6.0 0.00 0.00 0.00 83 1008.6
20260506083522 59 234 3.0 7.0 0.00 0.00 0.00 83 1008.6
20260506083022 59 192 3.0 5.0 0.00 0.00 0.00 82 1008.7
20260506081522 59 230 2.0 5.0 0.00 0.00 0.00 82 1008.8
20260506081021 59 221 2.0 5.0 0.00 0.00 0.00 81 1008.7
20260506080521 59 150 2.0 5.0 0.00 0.00 0.00 81 1008.7
20260506073522 59 201 3.0 8.0 0.00 0.00 0.00 79 1009.0
20260506072521 59 147 2.0 7.0 0.00 0.00 0.00 79 1008.7
20260506072022 60 202 2.0 6.0 0.00 0.00 0.00 78 1008.7
20260506071521 60 184 3.0 13.0 0.00 0.00 0.00 78 1008.7
20260506071022 60 131 4.0 9.0 0.00 0.00 0.00 77 1008.6
20260506070522 60 235 2.0 7.0 0.00 0.00 0.00 77 1008.5
20260506062021 62 238 3.0 10.0 0.00 0.00 0.00 72 1008.3
20260506061021 62 210 3.0 6.0 0.00 0.00 0.00 72 1008.5
20260506060521 62 218 3.0 6.0 0.00 0.00 0.00 71 1008.4
20260506051022 62 210 2.0 12.0 0.00 0.00 0.00 67 1008.7
20260506045021 63 210 3.0 12.0 0.00 0.00 0.00 65 1008.9
20260506044521 63 190 3.0 10.0 0.00 0.00 0.00 65 1008.9
20260506044021 62 210 3.0 9.0 0.00 0.00 0.00 65 1009.0
20260506043021 63 224 3.0 7.0 0.00 0.00 0.00 65 1009.0
20260506042521 62 124 4.0 8.0 0.00 0.00 0.00 64 1008.9
20260506042021 62 223 2.0 6.0 0.00 0.00 0.00 65 1008.9
20260506041021 62 134 3.0 7.0 0.00 0.00 0.00 64 1009.0
20260506040521 62 197 2.0 8.0 0.00 0.00 0.00 63 1008.9
20260506040021 62 193 3.0 7.0 0.00 0.00 0.00 64 1009.0
20260506035521 62 272 3.0 10.0 0.00 0.00 0.00 63 1008.9
20260506035021 62 164 3.0 8.0 0.00 0.00 0.00 63 1008.9
20260506034021 63 203 3.0 8.0 0.00 0.00 0.00 63 1008.8
20260506033521 62 181 3.0 8.0 0.00 0.00 0.00 63 1008.8
20260506033021 62 142 4.0 7.0 0.00 0.00 0.00 63 1008.6
20260506032521 62 309 3.0 9.0 0.00 0.00 0.00 64 1008.6
20260506032021 62 193 3.0 6.0 0.00 0.00 0.00 63 1008.8
20260506031521 62 267 3.0 6.0 0.00 0.00 0.00 63 1008.6
20260506031020 62 207 3.0 7.0 0.00 0.00 0.00 63 1008.6
20260506030521 62 246 3.0 7.0 0.00 0.00 0.00 63 1008.8
20260506025521 62 189 3.0 8.0 0.00 0.00 0.00 63 1008.6
20260506025020 62 208 3.0 6.0 0.00 0.00 0.00 64 1008.7
20260506023520 62 174 3.0 6.0 0.00 0.00 0.00 63 1008.7
20260506022520 62 194 3.0 8.0 0.00 0.00 0.00 62 1008.8
20260506022020 62 196 4.0 12.0 0.00 0.00 0.00 62 1008.6
20260506021520 62 213 3.0 7.0 0.00 0.00 0.00 62 1008.6